This is the latest recevied weather packets stored in our database for station/object EA7HQL-10. If no packets are shown the sender has not sent any weather packets the latest 1 day(s).
| Time | Temp. | Humidity | Pressure | Rain* | Wind** | Luminosity | Snow |
|---|---|---|---|---|---|---|---|
| 1777992199 | 22.78° C | 51% | 1009.5 hPa | 0 mm | 1.79 m/s, 114° | - | - |
| 1777991904 | 22.78° C | 51% | 1009.3 hPa | 0 mm | 4.02 m/s, 195° | - | - |
| 1777991614 | 22.78° C | 52% | 1009.5 hPa | 0 mm | 3.58 m/s, 237° | - | - |
| 1777991349 | 22.78° C | 51% | 1009.6 hPa | 0 mm | 3.13 m/s, 195° | - | - |
| 1777991089 | 22.78° C | 48% | 1009.7 hPa | 0 mm | 3.58 m/s, 199° | - | - |
| 1777990839 | 22.78° C | 48% | 1009.7 hPa | 0 mm | 4.02 m/s, 102° | - | - |
| 1777990544 | 22.22° C | 50% | 1009.7 hPa | 0 mm | 5.36 m/s, 234° | - | - |
| 1777990249 | 22.22° C | 45% | 1009.8 hPa | 0 mm | 1.34 m/s, 226° | - | - |
| 1777989739 | 23.33° C | 45% | 1009.7 hPa | 0 mm | 1.79 m/s, 154° | - | - |
| 1777989484 | 22.78° C | 46% | 1009.6 hPa | 0 mm | 3.13 m/s, 251° | - | - |
| 1777989234 | 22.78° C | 43% | 1009.6 hPa | 0 mm | 3.58 m/s, 159° | - | - |
| 1777988939 | 22.78° C | 43% | 1009.8 hPa | 0 mm | 4.02 m/s, 213° | - | - |
| 1777988651 | 22.78° C | 46% | 1010 hPa | 0 mm | 2.68 m/s, 198° | - | - |
| 1777988357 | 22.22° C | 44% | 1010.1 hPa | 0 mm | 3.58 m/s, 261° | - | - |
| 1777988104 | 22.78° C | 44% | 1010.2 hPa | 0 mm | 5.36 m/s, 214° | - | - |
| 1777987849 | 22.22° C | 45% | 1010.3 hPa | 0 mm | 5.36 m/s, 222° | - | - |
| 1777987594 | 22.78° C | 44% | 1010.2 hPa | 0 mm | 5.36 m/s, 202° | - | - |
| 1777987324 | 22.78° C | 43% | 1010.2 hPa | 0 mm | 2.68 m/s, 228° | - | - |
| 1777987070 | 22.22° C | 44% | 1010.3 hPa | 0 mm | 1.34 m/s, 203° | - | - |
| 1777986829 | 22.22° C | 45% | 1010.3 hPa | 0 mm | 2.24 m/s, 192° | - | - |
| 1777986559 | 22.78° C | 42% | 1010.6 hPa | 0 mm | 2.68 m/s, 190° | - | - |
| 1777986319 | 23.33° C | 40% | 1010.2 hPa | 0 mm | 4.47 m/s, 227° | - | - |
| 1777986044 | 22.78° C | 43% | 1010.6 hPa | 0 mm | 2.68 m/s, 160° | - | - |
| 1777985764 | 22.22° C | 44% | 1010.7 hPa | 0 mm | 2.68 m/s, 206° | - | - |
| 1777985494 | 24.44° C | 43% | 1010.6 hPa | 0 mm | 1.79 m/s, 138° | - | - |
* Rain latest hour (hover to see other rain measurements)
** Current wind speed in m/s (hover to see current wind gust speed)